Beaufort, NC

12:58 AM EDT on April 27, 2017 (GMT -0400)
Smith

Weather History for KMRH - September, 2011

Change the Weather History Date:

Friday, September 9, 2011

  Actual Average Record
Temperature  
Mean Temperature 76 °F -  
Max Temperature 84 °F 84 °F 91 °F (1960)
Min Temperature 71 °F 66 °F 54 °F (1970)
Cooling Degree Days 12    
Growing Degree Days 26 (Base 50)    
Moisture  
Dew Point 65 °F    
Average Humidity 66    
Maximum Humidity 81    
Minimum Humidity 51    
Precipitation  
Precipitation 0.00 in - - ()
Sea Level Pressure  
Sea Level Pressure 29.89 in    
Wind  
Wind Speed 7 mph (WSW)    
Max Wind Speed 15 mph    
Max Gust Speed 18 mph    
Visibility 10 miles    
Events      
Averages and records for this station are not official NWS values.
T = Trace of Precipitation, MM = Missing Value Source: NWS Daily Summary

Daily Weather History Graph

Daily Weather History Graph

Search for Another Location

Airport or City:

Trip Planner

Search our weather history database for the weather conditions in past years. The results will help you decide how hot, cold, wet, or windy it might be!

Date:

Astronomy

Sep. 09, 2011 Rise Set
Actual Time 6:45 AM EDT 7:22 PM EDT
Civil Twilight 6:19 AM EDT 7:47 PM EDT
Nautical Twilight 5:49 AM EDT 8:17 PM EDT
Astronomical Twilight 5:18 AM EDT 8:48 PM EDT
Moon 5:43 PM EDT (9/9) 4:08 AM EDT (9/9)
Length of Visible Light 13h 28m
Length of Day
12h 37m
Waxing Gibbous, 93% of the Moon is Illuminated
Sep 9
Waxing Gibbous
Sep 12
Full
Sep 20
Last Quarter
Sep 27
New
Oct 3
First Quarter

Hourly Weather History & Observations

Time (EDT) Temp. Heat Index Dew Point Humidity Pressure Visibility Wind Dir Wind Speed Gust Speed Precip Events Conditions
12:56 AM 75.9 °F - 66.0 °F 71% 29.88 in 10.0 mi West 5.8 mph - N/A   Clear
1:56 AM 73.0 °F - 64.9 °F 76% 29.88 in 10.0 mi WNW 5.8 mph - N/A   Partly Cloudy
2:56 AM 72.0 °F - 64.0 °F 76% 29.89 in 10.0 mi WNW 6.9 mph - N/A   Clear
3:56 AM 71.1 °F - 64.9 °F 81% 29.88 in 10.0 mi Calm Calm - N/A   Clear
4:56 AM 73.9 °F - 66.0 °F 76% 29.88 in 10.0 mi WSW 6.9 mph - N/A   Clear
5:56 AM 73.9 °F - 66.0 °F 76% 29.88 in 10.0 mi West 5.8 mph - N/A   Clear
6:56 AM 72.0 °F - 64.9 °F 78% 29.88 in 10.0 mi West 3.5 mph - N/A   Clear
7:56 AM 73.9 °F - 66.0 °F 76% 29.89 in 10.0 mi WNW 4.6 mph - N/A   Clear
8:56 AM 77.0 °F - 66.9 °F 71% 29.90 in 10.0 mi West 5.8 mph - N/A   Clear
11:56 AM 81.0 °F 83.0 °F 66.0 °F 60% 29.92 in 9.0 mi WSW 10.4 mph - N/A   Clear
12:56 PM 82.9 °F 84.0 °F 63.0 °F 51% 29.92 in 10.0 mi SW 11.5 mph 18.4 mph N/A   Clear
1:56 PM 82.9 °F 84.6 °F 64.9 °F 54% 29.90 in 10.0 mi SW 11.5 mph - N/A   Clear
2:56 PM 82.9 °F 84.0 °F 63.0 °F 51% 29.89 in 10.0 mi SW 15.0 mph - N/A   Clear
3:56 PM 82.9 °F 84.0 °F 63.0 °F 51% 29.88 in 10.0 mi SW 13.8 mph - N/A   Clear
4:56 PM 82.0 °F 84.1 °F 66.0 °F 58% 29.88 in 10.0 mi SW 11.5 mph - N/A   Clear
5:56 PM 80.1 °F 82.1 °F 66.0 °F 62% 29.87 in 10.0 mi SW 12.7 mph - N/A   Clear
6:56 PM 79.0 °F - 66.0 °F 64% 29.89 in 10.0 mi SW 10.4 mph - N/A   Scattered Clouds
8:56 PM 77.0 °F - 62.1 °F 60% 29.92 in 10.0 mi SW 11.5 mph - N/A   Scattered Clouds
9:56 PM 75.9 °F - 63.0 °F 64% 29.92 in 10.0 mi WSW 6.9 mph - N/A   Clear
10:56 PM 78.1 °F - 66.0 °F 66% 29.92 in 10.0 mi SW 11.5 mph - N/A   Scattered Clouds
11:56 PM 75.9 °F - 66.0 °F 71% 29.92 in 10.0 mi West 9.2 mph - N/A   Clear